Weather History for KAIK - October, 2012

Change the Weather History Date:

Tuesday, October 23, 2012

  Actual Average Record
Temperature  
Mean Temperature 61 °F -  
Max Temperature 78 °F 76 °F 78 °F (2012)
Min Temperature 44 °F 47 °F 37 °F (2010)
Degree Days  
Heating Degree Days 4    
Growing Degree Days 11 (Base 50)    
Moisture  
Dew Point 49 °F    
Average Humidity 68    
Maximum Humidity 100    
Minimum Humidity 32    
Precipitation  
Precipitation 0.00 in - - ()
Sea Level Pressure  
Sea Level Pressure 30.19 in    
Wind  
Wind Speed 1 mph (SE)    
Max Wind Speed 6 mph    
Max Gust Speed -    
Visibility 10 miles    
Events      
Averages and records for this station are not official NWS values.
T = Trace of Precipitation, MM = Missing Value Source: NWS Daily Summary

Daily Weather History Graph

Daily Weather History Graph

Search for Another Location

Airport or City:

Trip Planner

Search our weather history database for the weather conditions in past years. The results will help you decide how hot, cold, wet, or windy it might be!

Date:

Astronomy

Oct. 23, 2012 Rise Set
Actual Time 7:38 AM EDT 6:43 PM EDT
Civil Twilight 7:12 AM EDT 7:08 PM EDT
Nautical Twilight 6:43 AM EDT 7:37 PM EDT
Astronomical Twilight 6:14 AM EDT 8:06 PM EDT
Moon 3:10 PM EDT (10/23) 1:45 AM EDT (10/23)
Length of Visible Light 11h 55m
Length of Day
11h 04m
Waxing Gibbous, 66% of the Moon is Illuminated
Oct 23
Waxing Gibbous
Oct 29
Full
Nov 6
Last Quarter
Nov 13
New
Nov 20
First Quarter

Hourly Weather History & Observations

Time (EDT) Temp. Dew Point Humidity Pressure Visibility Wind Dir Wind Speed Gust Speed Precip Events Conditions
12:15 AM 51.8 °F 50.0 °F 94% 30.23 in 10.0 mi Calm Calm - N/A   Clear
12:35 AM 51.8 °F 50.0 °F 94% 30.23 in 10.0 mi Calm Calm - N/A   Clear
1:15 AM 51.8 °F 50.0 °F 94% 30.22 in 10.0 mi Calm Calm - N/A   Clear
1:35 AM 51.8 °F 50.0 °F 94% 30.22 in 10.0 mi Calm Calm - N/A   Clear
2:15 AM 50.0 °F 46.4 °F 87% 30.21 in 10.0 mi Calm Calm - N/A   Clear
2:55 AM 50.0 °F 48.2 °F 94% 30.19 in 10.0 mi Calm Calm - N/A   Clear
3:35 AM 48.2 °F 48.2 °F 100% 30.21 in 10.0 mi Calm Calm - N/A   Clear
3:55 AM 48.2 °F 48.2 °F 100% 30.20 in 10.0 mi Calm Calm - N/A   Clear
4:15 AM 48.2 °F 48.2 °F 100% 30.19 in 10.0 mi Calm Calm - N/A   Clear
4:35 AM 48.2 °F 48.2 °F 100% 30.19 in 10.0 mi Calm Calm - N/A   Clear
4:55 AM 46.4 °F 46.4 °F 100% 30.18 in 10.0 mi Calm Calm - N/A   Clear
5:15 AM 46.4 °F 46.4 °F 100% 30.19 in 10.0 mi Calm Calm - N/A   Clear
5:35 AM 46.4 °F 46.4 °F 100% 30.18 in 10.0 mi Calm Calm - N/A   Clear
5:55 AM 46.4 °F 46.4 °F 100% 30.19 in 10.0 mi Calm Calm - N/A   Clear
6:15 AM 46.4 °F 46.4 °F 100% 30.20 in 10.0 mi Calm Calm - N/A   Clear
6:55 AM 44.6 °F 44.6 °F 100% 30.21 in 10.0 mi Calm Calm - N/A   Clear
7:35 AM 44.6 °F 44.6 °F 100% 30.23 in 10.0 mi Calm Calm - N/A   Clear
7:55 AM 44.6 °F 44.6 °F 100% 30.23 in 10.0 mi Calm Calm - N/A   Clear
8:15 AM 46.4 °F 46.4 °F 100% 30.24 in 10.0 mi Calm Calm - N/A   Clear
8:35 AM 50.0 °F 50.0 °F 100% 30.25 in 10.0 mi Calm Calm - N/A   Clear
8:55 AM 51.8 °F 51.8 °F 100% 30.25 in 10.0 mi Calm Calm - N/A   Clear
9:55 AM 62.6 °F 55.4 °F 77% 30.25 in 10.0 mi Calm Calm - N/A   Clear
10:15 AM 64.4 °F 55.4 °F 73% 30.25 in 10.0 mi Calm Calm - N/A   Clear
10:35 AM 66.2 °F 55.4 °F 68% 30.25 in 10.0 mi Calm Calm - N/A   Clear
10:55 AM 68.0 °F 53.6 °F 60% 30.25 in 10.0 mi Calm Calm - N/A   Clear
11:15 AM 69.8 °F 53.6 °F 56% 30.25 in 10.0 mi Calm Calm - N/A   Clear
11:55 AM 71.6 °F 51.8 °F 50% 30.24 in 10.0 mi Calm Calm - N/A   Clear
12:15 PM 71.6 °F 51.8 °F 50% 30.23 in 10.0 mi SSE 3.5 mph - N/A   Clear
12:35 PM 73.4 °F 51.8 °F 47% 30.23 in 10.0 mi Calm Calm - N/A   Clear
1:15 PM 73.4 °F 50.0 °F 44% 30.20 in 10.0 mi ENE 4.6 mph - N/A   Clear
1:35 PM 75.2 °F 50.0 °F 41% 30.19 in 10.0 mi East 5.8 mph - N/A   Clear
1:55 PM 77.0 °F 50.0 °F 39% 30.18 in 10.0 mi NNE 3.5 mph - N/A   Clear
2:15 PM 77.0 °F 50.0 °F 39% 30.17 in 10.0 mi Calm Calm - N/A   Clear
2:35 PM 78.8 °F 51.8 °F 39% 30.16 in 10.0 mi East 3.5 mph - N/A   Clear
2:55 PM 77.0 °F 50.0 °F 39% 30.16 in 10.0 mi SSW 3.5 mph - N/A   Clear
3:15 PM 78.8 °F 50.0 °F 36% 30.16 in 10.0 mi SW 3.5 mph - N/A   Clear
3:35 PM 78.8 °F 50.0 °F 36% 30.15 in 10.0 mi Calm Calm - N/A   Clear
3:55 PM 78.8 °F 50.0 °F 36% 30.15 in 10.0 mi SSE 3.5 mph - N/A   Clear
4:15 PM 78.8 °F 48.2 °F 34% 30.15 in 10.0 mi Calm Calm - N/A   Clear
4:35 PM 78.8 °F 48.2 °F 34% 30.15 in 10.0 mi Calm Calm - N/A   Clear
4:55 PM 78.8 °F 46.4 °F 32% 30.15 in 10.0 mi Calm Calm - N/A   Clear
5:15 PM 78.8 °F 48.2 °F 34% 30.14 in 10.0 mi SE 3.5 mph - N/A   Clear
5:35 PM 78.8 °F 48.2 °F 34% 30.14 in 10.0 mi Calm Calm - N/A   Clear
5:55 PM 77.0 °F 46.4 °F 34% 30.14 in 10.0 mi Calm Calm - N/A   Clear
6:15 PM 73.4 °F 51.8 °F 47% 30.14 in 10.0 mi Calm Calm - N/A   Clear
6:35 PM 68.0 °F 50.0 °F 52% 30.14 in 10.0 mi Calm Calm - N/A   Clear
6:55 PM 69.8 °F 50.0 °F 49% 30.15 in 10.0 mi Calm Calm - N/A   Clear
7:15 PM 66.2 °F 50.0 °F 56% 30.15 in 10.0 mi Calm Calm - N/A   Clear
7:35 PM 64.4 °F 50.0 °F 59% 30.16 in 10.0 mi Calm Calm - N/A   Clear
7:55 PM 68.0 °F 48.2 °F 49% 30.16 in 10.0 mi SE 4.6 mph - N/A   Clear
8:15 PM 64.4 °F 48.2 °F 56% 30.17 in 10.0 mi SE 5.8 mph - N/A   Clear
8:35 PM 64.4 °F 48.2 °F 56% 30.17 in 10.0 mi SE 5.8 mph - N/A   Clear
8:55 PM 60.8 °F 50.0 °F 68% 30.17 in 10.0 mi SSE 4.6 mph - N/A   Clear
9:15 PM 62.6 °F 48.2 °F 59% 30.17 in 10.0 mi SE 4.6 mph - N/A   Clear
9:35 PM 62.6 °F 48.2 °F 59% 30.17 in 10.0 mi SE 5.8 mph - N/A   Clear
9:55 PM 60.8 °F 48.2 °F 63% 30.18 in 10.0 mi SSE 4.6 mph - N/A   Clear
10:15 PM 57.2 °F 50.0 °F 77% 30.18 in 10.0 mi Calm Calm - N/A   Clear
10:35 PM 57.2 °F 50.0 °F 77% 30.18 in 10.0 mi Calm Calm - N/A   Clear
10:55 PM 57.2 °F 50.0 °F 77% 30.18 in 10.0 mi Calm Calm - N/A   Clear
11:15 PM 55.4 °F 50.0 °F 82% 30.18 in 10.0 mi Calm Calm - N/A   Clear
11:35 PM 53.6 °F 48.2 °F 82% 30.19 in 10.0 mi Calm Calm - N/A   Clear
11:55 PM 53.6 °F 50.0 °F 88% 30.19 in 10.0 mi Calm Calm - N/A   Clear